Regional Weather Roundup
Issued by NWS Wilmington, NC

Home | Current Version | Previous Version | Text Only | Print | Product List | Glossary On
Versions: 1 2 3 4 5 6 7 8 9 10 11 12 13 14 15 16 17 18 19 20 21 22 23 24 25 26 27
000
ASUS42 KILM 250610
RWRILM
RWRILM
REGIONAL HOURLY WEATHER ROUNDUP
NATIONAL WEATHER SERVICE WILMINGTON NC
200 AM EDT FRI APR 25 2014

NOTE: "FAIR" INDICATES FEW OR NO CLOUDS BELOW 12,000 FEET WITH NO
SIGNIFICANT WEATHER AND/OR OBSTRUCTIONS TO VISIBILITY.

...............WFO WILMINGTON COUNTY WARNING AREA...............

......COASTAL NC AND SC COUNTIES......

CITY           SKY/WX    TMP DP  RH WIND       PRES   REMARKS
WILMINGTON     FAIR      57  53  86 CALM      29.99F
SOUTHPORT      FAIR      61  59  93 E3        29.99F
N MYRTLE BEACH FAIR      62  59  90 E5        29.98F
MYRTLE BEACH   FAIR      61  57  88 CALM      29.97F

......INLAND NC AND SC COUNTIES.......

CITY           SKY/WX    TMP DP  RH WIND       PRES   REMARKS
LUMBERTON      FAIR      49  48  97 CALM      29.97F
ELIZABETHTOWN  FAIR      54  49  83 CALM      29.99F
WHITEVILLE     FAIR      58  54  85 E3        29.98F
FLORENCE       FAIR      56  53  90 E3        29.97F
DARLINGTON     FAIR      55  50  82 CALM      29.98F

....................REST OF NORTH CAROLINA......................

.........EASTERN NC.........

CITY           SKY/WX    TMP DP  RH WIND       PRES   REMARKS
CAPE HATTERAS  FAIR      49  44  83 CALM      30.04F
JACKSONVILLE   FAIR      50  50 100 CALM      30.01F
MOREHEAD CITY  FAIR      52  49  89 E5        30.02F
KENANSVILLE    MOCLDY    49  47  92 CALM      30.01F
NEW BERN       FAIR      50  46  86 CALM      30.03F
ELIZABETH CITY FAIR      52  47  83 SE5       30.03F

.........CENTRAL NC.........

CITY           SKY/WX    TMP DP  RH WIND       PRES   REMARKS
RALEIGH DURHAM FAIR      55  41  59 SE3       29.99F
ROCKY MOUNT    FAIR      48  43  82 CALM      30.00F
ROANOKE RAPIDS NOT AVBL
FAYETTEVILLE   FAIR      55  48  77 SE5       29.98F
HOFFMAN        FAIR      52  48  88 S2        29.99F

.........WESTERN NC.........

CITY           SKY/WX    TMP DP  RH WIND       PRES   REMARKS
CHARLOTTE      MOCLDY    57  51  80 S7        29.96F
GREENSBORO     FAIR      55  42  61 S7        29.96F
HICKORY        NOT AVBL
BOONE          NOT AVBL
ASHEVILLE      NOT AVBL

.....................REST OF SOUTH CAROLINA.....................

.........EASTERN SC.........

CITY           SKY/WX    TMP DP  RH WIND       PRES   REMARKS
CHARLESTON     FAIR      62  59  90 CALM      29.96F
BEAUFORT MCAS  MOCLDY    63  61  93 SE3       29.95F
HILTON HEAD    NOT AVBL

.........CENTRAL SC.........

CITY           SKY/WX    TMP DP  RH WIND       PRES   REMARKS
COLUMBIA       FAIR      61  56  83 E5        29.95F
ORANGEBURG     FAIR      60  55  83 VRB5      29.96F
SUMTER SHAW    FAIR      58  55  89 E1        29.94F

.........WESTERN SC.........

CITY           SKY/WX    TMP DP  RH WIND       PRES   REMARKS
GREENVILLE     NOT AVBL
ROCK HILL      FAIR      59  52  77 CALM      29.96S
ANDERSON       FAIR      61  51  70 SE7       29.93S
CLEMSON        NOT AVBL
GREENWOOD      MOCLDY    61  56  83 SE7       29.95F


...................COASTAL AND OFFSHORE REPORTS..................

................LOCAL PIERS AND NC RESERVE................


STATION/POSITION TIME  SKY/WX   TEMP    WIND        PRES    VSBY
                                AIR SEA DIR/SP/G
                 (UTC)          (F)     (DEG/KT/KT) (MB)    (MI)
JOHNY MRCER PIER 0600            62 63  100/  5/  5 1015.1F
NC RESRV MASNBRO 0500            60     350/  1     1016.0S
OCEAN CREST PIER 0600            65 63  110/  8/  9 1014.4F
SPRINGMAID  PIER 0600            63 63   50/  5/  5 1015.1S


................COASTAL AND OFFSHORE BUOYS................


STATION/POSITION TIME  SKY/WX   TEMP    WIND        PRES    VSBY
                                AIR SEA DIR/SP/G
                 (UTC)          (F)     (DEG/KT/KT) (MB)    (MI)
DIMNDSHOAL 41025 NOT AVBL
CAPE LOOKOUT     0500            62     100/  5/  5 1017.3F
ONSLOW BAY 41036 0500            68 69  130/  8/ 10 1017.1F
5 WRITEBCH 41038 NOT AVBL
MASONBORO  41110 0600               60                N/A
WVE H/P(F/S)=  2/ 7 WND WVE H/P(F/S)=  2/ 7

WILM HARBR 41108 NOT AVBL
27WRITEBCH 41037 NOT AVBL
FRYING PAN 41013 0600            70 68  160/ 10/ 12 1015.1F
WVE H/P(F/S)=  4/ 8 WND WVE H/P(F/S)=  2/ 4 SWL H/P/D(F/S/D)=  3/ 80/ 8

SUNST NRSH 41024 0500            63      90/  8/ 10 1015.5F
CAPRS NRSH 41029 NOT AVBL
EDISTO     41004 0600            73 71  140/  6/  6 1014.1F
WVE H/P(F/S)=  3/ 5 WND WVE H/P(F/S)=  2/ 4 SWL H/P/D(F/S/D)=  3/ 5



..........OFFSHORE BUOYS BEYOND 100 NM OFFSHORE...........
.....IN A TRIANGLE---HAT TO BERMUDA TO BAHAMAS TO HAT.....


STATION/POSITION TIME  SKY/WX   TEMP    WIND        PRES    VSBY
                                AIR SEA DIR/SP/G
                 (UTC)          (F)     (DEG/KT/KT) (MB)    (MI)
150E HAT   41001 NOT AVBL
W BERMUDA  41048 0530            63 68  300/ 16/ 21 1016.0F
WVE H/P(F/S)= 10/11 WND WVE H/P(F/S)=  7/ 6 SWL H/P/D(F/S/D)=  8/340/11

ATLANTIC S 41049 0504            71 74  300/ 16/ 19 1014.6
WVE H/P(F/S)=  8/ 8 WND WVE H/P(F/S)=  5/ 7 SWL H/P/D(F/S/D)=  7/320/ 8

E BAHAMAS  41046 NOT AVBL
NE BAHAMAS 41047 0514            72 75   90/  8/ 12 1017.3F
WVE H/P(F/S)=  3/ 7 WND WVE H/P(F/S)=  2/ 4

120E CANVRL41010 0600            75 76  140/ 12/ 14 1015.6S
WVE H/P(F/S)=  3/ 9 WND WVE H/P(F/S)=  2/ 3 SWL H/P/D(F/S/D)=  2/ 60/ 9


END



USA.gov is the U.S. government's official web portal to all federal, state and local government web resources and services.